[[{"header":{"parameterUnit":"m.s-1","parameterCategory":1,"la1":30.2991,"la2":30.254,"lo1":-89.0895,"lo2":-89.0444,"dy":0.0017,"dx":0.0017,"nx":28,"ny":28,"refTime":"2024-06-02T09:00:00:Z","depth":0,"parameterNumber":2,"parameterNumberName":"U-component_of_WINDS"},"data":[0,0,0,0,0,0,0,0,0,0,0,0,0,0,0,0,0,0,0,0,0,0,0,0,0,0,0,0,0,0,0,0,0,0,0,0,0,0,0,0,0,0,0,0,0,0,0,0,0,0,0,0,0,0,0,0,0,0,-1.4457,-1.4458,0,-1.4543,-1.4544,-1.4545,-1.4571,-1.4571,-1.457,-1.457,-1.4657,-1.4659,-1.4662,0,0,0,0,0,0,0,0,0,0,0,0,0,-1.4317,-1.4319,-1.4457,-1.4458,-1.4459,-1.4543,-1.4544,-1.4545,-1.4571,-1.4571,-1.457,-1.457,-1.4656,-1.4659,-1.4662,0,0,0,0,0,0,0,0,0,0,0,0,0,-1.4387,-1.432,-1.4457,-1.4482,-1.4485,-1.4543,-1.4544,-1.4545,-1.4571,-1.457,-1.457,-1.4569,-1.4655,-1.4659,-1.4663,-1.4701,0,0,-1.4675,-1.4677,0,0,0,0,0,0,0,0,-1.4383,-1.4393,-1.4478,-1.4481,-1.4484,-1.4546,-1.4526,-1.4598,-1.4571,-1.4539,-1.457,-1.4569,-1.462,-1.4627,-1.4645,-1.4705,-1.4709,-1.4676,-1.4678,-1.468,-1.4681,0,0,0,0,0,0,0,-1.4378,-1.4389,-1.4491,-1.4479,-1.4483,-1.449,-1.4499,-1.454,-1.4582,-1.4541,-1.4543,-1.4553,-1.4622,-1.4641,-1.4647,-1.471,-1.4676,-1.4679,-1.4682,-1.4683,-1.4807,-1.4807,0,0,0,0,0,0,-1.4369,-1.4385,-1.4488,-1.4494,-1.4431,-1.4493,-1.4503,-1.4527,-1.4582,-1.4589,-1.4554,-1.4554,-1.4634,-1.4642,-1.465,-1.4698,-1.468,-1.4684,-1.4686,-1.4806,-1.4807,-1.4808,0,0,0,0,0,0,-1.4366,-1.4378,-1.4485,-1.444,-1.4454,-1.4496,-1.4522,-1.4529,-1.4547,-1.4591,-1.4599,-1.4565,-1.4634,-1.4644,-1.4688,-1.4702,-1.4686,-1.4689,-1.4805,-1.4806,-1.4807,-1.4795,0,0,0,0,0,0,-1.4362,-1.4377,-1.4391,-1.444,-1.4456,-1.4521,-1.4523,-1.4531,-1.4554,-1.4556,-1.4604,-1.4611,-1.4634,-1.4682,-1.4692,-1.4707,-1.4692,-1.4804,-1.4805,-1.4807,-1.4794,-1.4796,-1.4797,0,0,0,0,0,-1.4357,-1.4384,-1.4392,-1.4404,-1.4475,-1.4522,-1.4531,-1.4558,-1.4555,-1.457,-1.4599,-1.4609,-1.4699,-1.4686,-1.4698,-1.4714,-1.4803,-1.4805,-1.4807,-1.4794,-1.4795,-1.4797,0,0,0,0,0,0,-1.4336,-1.4391,-1.44,-1.4444,-1.4478,-1.4526,-1.4546,-1.4559,-1.4594,-1.4594,-1.4625,-1.4636,-1.4677,-1.47,-1.4685,-1.4754,-1.4751,-1.4756,-1.4737,-1.4739,-1.4741,-1.4734,-1.4696,0,0,0,0,0,-1.4336,-1.437,-1.4416,-1.4451,-1.4467,-1.4504,-1.4525,-1.4543,-1.4579,-1.4594,-1.4625,-1.466,-1.4696,-1.4719,-1.4755,-1.4798,-1.4809,-1.4815,-1.4817,-1.4817,-1.482,-1.4846,-1.4849,-1.4814,-1.4814,-1.4814,0,0,-1.4337,-1.4372,-1.4391,-1.4447,-1.4476,-1.451,-1.4516,-1.4551,-1.4577,-1.4599,-1.4642,-1.4667,-1.4708,-1.4752,-1.4773,-1.4773,-1.4833,-1.482,-1.482,-1.4823,-1.4848,-1.4851,-1.4854,-1.4815,-1.4815,-1.4815,0,0,-1.4357,-1.4386,-1.4418,-1.4447,-1.4491,-1.4515,-1.4523,-1.4569,-1.4587,-1.4631,-1.4649,-1.468,-1.4741,-1.477,-1.4793,-1.4825,-1.4836,-1.4836,-1.4842,-1.4866,-1.4868,-1.4871,-1.4882,-1.4886,-1.4839,-1.4839,-1.4839,0,-1.4353,-1.4405,-1.4433,-1.4468,-1.4493,-1.4515,-1.4548,-1.4575,-1.4627,-1.4644,-1.4643,-1.4721,-1.4751,-1.4802,-1.481,-1.4827,-1.4837,-1.483,-1.4866,-1.4869,-1.4872,-1.4883,-1.4887,-1.4838,-1.4839,-1.4839,-1.4839,0,-1.4398,-1.4433,-1.4454,-1.4505,-1.4532,-1.4565,-1.46,-1.4624,-1.4639,-1.4664,-1.4709,-1.4745,-1.4789,-1.4803,-1.4818,-1.4857,-1.4855,-1.486,-1.4857,-1.4874,-1.4885,-1.489,-1.4838,-1.4838,-1.4838,-1.4838,0,0,-1.4404,-1.4472,-1.4479,-1.4502,-1.4553,-1.4581,-1.4616,-1.4659,-1.4679,-1.4715,-1.4746,-1.4798,-1.4803,-1.4829,-1.4848,-1.4869,-1.4893,-1.4872,-1.4873,-1.4874,-1.4937,-1.4933,-1.4937,-1.4901,-1.4902,-1.4903,-1.4934,0,-1.443,-1.4493,-1.4521,-1.4572,-1.4606,-1.4629,-1.4659,-1.4694,-1.4718,-1.475,-1.4778,-1.4814,-1.4818,-1.4834,-1.4856,-1.4885,-1.4906,-1.4883,-1.4929,-1.493,-1.4917,-1.4943,-1.4938,-1.4966,-1.4938,-1.4939,-1.4939,0,-1.4468,-1.4504,-1.4559,-1.4606,-1.4621,-1.4648,-1.469,-1.4721,-1.4761,-1.4777,-1.4807,-1.4825,-1.4864,-1.4859,-1.4913,-1.4897,-1.4917,-1.4935,-1.4937,-1.4941,-1.4935,-1.4948,-1.4975,-1.4979,-1.4947,-1.4946,-1.4945,0,-1.4467,-1.453,-1.4571,-1.4591,-1.4647,-1.4665,-1.4689,-1.4729,-1.4753,-1.479,-1.4807,-1.4848,-1.487,-1.4901,-1.4931,-1.4925,-1.4981,-1.4979,-1.4996,-1.4995,-1.5005,-1.5004,-1.5036,-1.502,-1.502,-1.502,-1.502,0,-1.4492,-1.4524,-1.4571,-1.4596,-1.4634,-1.4665,-1.4701,-1.4727,-1.4762,-1.4793,-1.4816,-1.4844,-1.4882,-1.4915,-1.4938,-1.4979,-1.4989,-1.5003,-1.5009,-1.5,-1.4998,-1.5014,-1.5012,-1.5021,-1.5021,-1.502,-1.502,0,-1.4497,-1.4529,-1.4576,-1.4625,-1.4639,-1.4664,-1.4707,-1.4732,-1.4758,-1.4797,-1.4808,-1.4849,-1.4889,-1.4922,-1.4975,-1.499,-1.5033,-1.504,-1.5019,-1.5022,-1.5036,-1.5034,-1.5078,-1.5085,-1.5065,-1.5065,-1.5065,0,-1.451,-1.4535,-1.4588,-1.461,-1.4635,-1.467,-1.4696,-1.4729,-1.4754,-1.4802,-1.4822,-1.4864,-1.4899,-1.4963,-1.4998,-1.5038,-1.5046,-1.5059,-1.5052,-1.5043,-1.5046,-1.5043,-1.5046,-1.5059,-1.5059,-1.5059,-1.5059,0,-1.453,-1.4545,-1.4581,-1.4623,-1.4653,-1.4687,-1.4722,-1.4739,-1.4779,-1.4806,-1.4848,-1.4876,-1.493,-1.4972,-1.5016,-1.5042,-1.5057,-1.5061,-1.5067,-1.5058,-1.5045,-1.5052,-1.502,-1.5059,-1.5059,-1.5059,-1.5059,-1.5059,-1.4539,-1.4563,-1.4604,-1.4643,-1.4674,-1.4706,-1.4732,-1.4762,-1.4798,-1.4845,-1.4863,-1.4905,-1.4946,-1.5007,-1.5033,-1.5067,-1.5069,-1.5077,-1.5079,-1.5081,-1.5079,-1.5041,-1.5076,-1.5076,-1.5076,-1.5076,-1.5076,0,-1.456,-1.4588,-1.4624,-1.4672,-1.4704,-1.4716,-1.4756,-1.4781,-1.4818,-1.4855,-1.489,-1.4938,-1.4979,-1.5017,-1.506,-1.508,-1.5088,-1.509,-1.5089,-1.5094,-1.5076,-1.5066,-1.5083,-1.5083,-1.5083,-1.5083,-1.5083,-1.5083,-1.4574,-1.4616,-1.4636,-1.4693,-1.4721,-1.4763,-1.4785,-1.4815,-1.4844,-1.4898,-1.4932,-1.4957,-1.4994,-1.504,-1.5078,-1.5089,-1.5103,-1.5103,-1.5115,-1.5097,-1.5096,-1.5095,-1.5086,-1.5106,-1.5106,-1.5131,-1.5131,-1.5131]},{"header":{"parameterUnit":"m.s-1","parameterCategory":1,"la1":30.2991,"la2":30.254,"lo1":-89.0895,"lo2":-89.0444,"dy":0.0017,"dx":0.0017,"nx":28,"ny":28,"refTime":"2024-06-02T09:00:00:Z","depth":0,"parameterNumber":3,"parameterNumberName":"V-component_of_WINDS"},"data":[0,0,0,0,0,0,0,0,0,0,0,0,0,0,0,0,0,0,0,0,0,0,0,0,0,0,0,0,0,0,0,0,0,0,0,0,0,0,0,0,0,0,0,0,0,0,0,0,0,0,0,0,0,0,0,0,0,0,3.3203,3.3203,0,3.3185,3.3185,3.3185,3.3099,3.3097,3.3095,3.3093,3.3075,3.3076,3.3077,0,0,0,0,0,0,0,0,0,0,0,0,0,3.3163,3.3164,3.3203,3.3203,3.3203,3.3185,3.3185,3.3185,3.3099,3.3096,3.3094,3.3092,3.3074,3.3076,3.3077,0,0,0,0,0,0,0,0,0,0,0,0,0,3.3166,3.3164,3.3203,3.3158,3.3154,3.3185,3.3185,3.3185,3.3099,3.3096,3.3093,3.3091,3.3074,3.3076,3.3078,3.3152,0,0,3.3084,3.3085,0,0,0,0,0,0,0,0,3.3166,3.3168,3.3165,3.3161,3.3156,3.3141,3.3164,3.3174,3.31,3.312,3.3093,3.3089,3.3099,3.3099,3.3102,3.3151,3.315,3.3084,3.3086,3.3087,3.3087,0,0,0,0,0,0,0,3.3166,3.3168,3.3196,3.3165,3.316,3.3138,3.3135,3.3165,3.3127,3.3118,3.3112,3.3111,3.3096,3.31,3.3101,3.315,3.3084,3.3086,3.3088,3.3088,3.3256,3.3259,0,0,0,0,0,0,3.3172,3.3168,3.3197,3.3196,3.3154,3.3141,3.3138,3.3149,3.3126,3.312,3.3113,3.3107,3.3098,3.3099,3.31,3.3183,3.3087,3.3089,3.309,3.3253,3.3256,3.326,0,0,0,0,0,0,3.3172,3.3175,3.3197,3.318,3.3181,3.3145,3.3158,3.315,3.3154,3.3123,3.3116,3.3125,3.3096,3.3097,3.3139,3.3182,3.3089,3.3091,3.3249,3.3254,3.3258,3.3352,0,0,0,0,0,0,3.3171,3.3176,3.3204,3.3181,3.3183,3.3237,3.3161,3.3152,3.3158,3.3149,3.3132,3.3126,3.3094,3.3136,3.3141,3.3183,3.3093,3.3245,3.3251,3.3257,3.3345,3.3359,3.3371,0,0,0,0,0,3.317,3.3232,3.3206,3.321,3.3217,3.324,3.324,3.3202,3.3162,3.3189,3.3169,3.3126,3.3177,3.3141,3.3146,3.3189,3.3242,3.3249,3.3256,3.3339,3.3356,3.3371,0,0,0,0,0,0,3.3261,3.3228,3.3199,3.3256,3.3251,3.3225,3.3259,3.3222,3.3229,3.3221,3.3173,3.317,3.3218,3.3208,3.3169,3.3258,3.3202,3.321,3.3263,3.3279,3.3293,3.3293,3.3095,0,0,0,0,0,3.3287,3.3309,3.3279,3.3332,3.3331,3.3296,3.3304,3.3275,3.3268,3.3266,3.3248,3.3243,3.3258,3.3268,3.328,3.3343,3.3337,3.3375,3.3388,3.34,3.3407,3.3437,3.3453,3.3283,3.3283,3.3283,0,0,3.3343,3.3327,3.3344,3.335,3.3342,3.3365,3.3294,3.3322,3.3337,3.327,3.3307,3.3295,3.3286,3.3338,3.336,3.3331,3.3453,3.3409,3.3418,3.3419,3.3446,3.3462,3.3477,3.3288,3.3287,3.3286,0,0,3.3454,3.3446,3.3488,3.3482,3.3471,3.3447,3.3458,3.3437,3.3425,3.3462,3.3411,3.343,3.3456,3.3451,3.3452,3.3561,3.3521,3.3566,3.3635,3.3666,3.3679,3.3691,3.3727,3.3741,3.3574,3.3574,3.3574,0,3.3524,3.3556,3.3514,3.3543,3.3547,3.3486,3.3527,3.3524,3.3519,3.3522,3.349,3.352,3.351,3.3559,3.3585,3.3589,3.3598,3.3567,3.3681,3.3692,3.3702,3.3736,3.375,3.3579,3.3579,3.3578,3.3578,0,3.3641,3.3664,3.3699,3.3694,3.3701,3.3737,3.37,3.3712,3.3682,3.3661,3.3699,3.3685,3.3691,3.3701,3.3673,3.3746,3.3728,3.3689,3.3631,3.3724,3.3755,3.3768,3.3587,3.3585,3.3584,3.3582,0,0,3.381,3.378,3.3793,3.3789,3.3773,3.3789,3.3822,3.3828,3.3838,3.3837,3.3862,3.3885,3.3848,3.3849,3.382,3.3847,3.393,3.3804,3.3803,3.3826,3.4008,3.4036,3.4052,3.3905,3.3907,3.3909,3.4008,0,3.3915,3.3967,3.393,3.3989,3.4008,3.395,3.3978,3.3971,3.3952,3.3965,3.3945,3.3961,3.3912,3.3912,3.3936,3.3915,3.3966,3.3908,3.3926,3.3927,3.3928,3.4068,3.4098,3.4192,3.402,3.4022,3.4023,0,3.4044,3.4046,3.4107,3.4085,3.4091,3.4117,3.4118,3.4132,3.4123,3.4107,3.4108,3.4071,3.41,3.4044,3.4083,3.4044,3.4049,3.404,3.4043,3.4042,3.398,3.4069,3.4221,3.4235,3.4043,3.4041,3.404,0,3.4158,3.4177,3.4215,3.4214,3.4189,3.4208,3.4199,3.4186,3.4191,3.4193,3.4195,3.4201,3.4203,3.4208,3.4173,3.4136,3.4216,3.4158,3.4202,3.4203,3.4221,3.422,3.4374,3.4228,3.4227,3.4227,3.4227,0,3.4278,3.4317,3.4265,3.4289,3.433,3.4286,3.4328,3.4313,3.4302,3.4321,3.4272,3.4291,3.4244,3.4258,3.4231,3.4266,3.4268,3.4255,3.4247,3.4258,3.426,3.426,3.4252,3.4231,3.423,3.4229,3.4229,0,3.4412,3.4379,3.4416,3.439,3.4384,3.4415,3.4392,3.4412,3.439,3.4414,3.4417,3.4382,3.4396,3.4361,3.437,3.4352,3.4402,3.4384,3.4405,3.4399,3.4445,3.444,3.4603,3.4622,3.4465,3.4467,3.4468,0,3.449,3.4518,3.4494,3.4502,3.4495,3.4511,3.4515,3.4473,3.448,3.447,3.4491,3.45,3.4505,3.4529,3.4504,3.451,3.4491,3.4548,3.4492,3.4502,3.449,3.4488,3.4489,3.4559,3.4561,3.4563,3.4564,0,3.4631,3.4613,3.4621,3.4623,3.463,3.463,3.4627,3.4637,3.4592,3.4602,3.4614,3.4618,3.4626,3.4635,3.4636,3.4626,3.4587,3.4582,3.4592,3.4603,3.4613,3.4606,3.4434,3.4578,3.4577,3.4576,3.4575,3.4574,3.4738,3.4759,3.4745,3.4755,3.4748,3.4745,3.4762,3.4741,3.4751,3.4753,3.4728,3.4746,3.4734,3.473,3.4724,3.4736,3.471,3.4726,3.473,3.4734,3.474,3.4613,3.4737,3.4736,3.4736,3.4735,3.4735,0,3.4874,3.4862,3.4872,3.4868,3.4876,3.4838,3.4832,3.4841,3.4857,3.4849,3.4854,3.4868,3.4876,3.4852,3.4856,3.4871,3.4854,3.4874,3.4871,3.4869,3.4764,3.4754,3.4888,3.4888,3.4888,3.4888,3.4888,3.4888,3.4946,3.4979,3.4959,3.4988,3.4976,3.4992,3.4991,3.4988,3.4981,3.4998,3.5004,3.4988,3.4973,3.4976,3.4982,3.4974,3.4977,3.5003,3.499,3.4892,3.4877,3.4863,3.4853,3.5005,3.5005,3.5093,3.5094,3.5095]}]]